[[{"header":{"parameterUnit":"m.s-1","parameterCategory":1,"la1":30.2991,"la2":30.254,"lo1":-89.0895,"lo2":-89.0444,"dy":0.0017,"dx":0.0017,"nx":28,"ny":28,"refTime":"2023-09-22T21:00:00:Z","depth":0,"parameterNumber":2,"parameterNumberName":"U-component_of_WINDS"},"data":[0,0,0,0,0,0,0,0,0,0,0,0,0,0,0,0,0,0,0,0,0,0,0,0,0,0,0,0,0,0,0,0,0,0,0,0,0,0,0,0,0,0,0,0,0,0,0,0,0,0,0,0,0,0,0,0,0,0,-1.7523,-1.7524,0,-1.7613,-1.7614,-1.7615,-1.7622,-1.7621,-1.762,-1.7619,-1.7715,-1.7718,-1.7721,0,0,0,0,0,0,0,0,0,0,0,0,0,-1.7357,-1.736,-1.7523,-1.7524,-1.7525,-1.7613,-1.7614,-1.7616,-1.7623,-1.7621,-1.762,-1.7619,-1.7713,-1.7717,-1.7722,0,0,0,0,0,0,0,0,0,0,0,0,0,-1.7436,-1.7361,-1.7523,-1.7539,-1.7541,-1.7613,-1.7614,-1.7616,-1.7623,-1.7621,-1.762,-1.7618,-1.7712,-1.7717,-1.7722,-1.7784,0,0,-1.7738,-1.774,0,0,0,0,0,0,0,0,-1.7432,-1.7442,-1.7535,-1.7538,-1.7541,-1.7605,-1.7591,-1.7672,-1.7623,-1.7592,-1.7619,-1.7618,-1.7679,-1.7687,-1.7708,-1.7789,-1.7793,-1.7739,-1.7742,-1.7744,-1.7745,0,0,0,0,0,0,0,-1.7426,-1.7439,-1.7559,-1.7537,-1.754,-1.7542,-1.7552,-1.7606,-1.7643,-1.7595,-1.7595,-1.7606,-1.7681,-1.7703,-1.771,-1.7794,-1.7738,-1.7743,-1.7746,-1.7748,-1.793,-1.7932,0,0,0,0,0,0,-1.7417,-1.7434,-1.7556,-1.7561,-1.7481,-1.7546,-1.7557,-1.7586,-1.7642,-1.765,-1.7607,-1.7606,-1.7694,-1.7704,-1.7713,-1.779,-1.7744,-1.7749,-1.7752,-1.7928,-1.793,-1.7932,0,0,0,0,0,0,-1.7414,-1.7428,-1.7552,-1.7498,-1.7514,-1.7551,-1.7583,-1.7588,-1.761,-1.7652,-1.7659,-1.7623,-1.7694,-1.7706,-1.7766,-1.7793,-1.7751,-1.7756,-1.7926,-1.7929,-1.7931,-1.7943,0,0,0,0,0,0,-1.7409,-1.7427,-1.7451,-1.7498,-1.7517,-1.7603,-1.7585,-1.7591,-1.7619,-1.7618,-1.7668,-1.7675,-1.7693,-1.7758,-1.7771,-1.78,-1.776,-1.7924,-1.7927,-1.793,-1.7941,-1.7946,-1.795,0,0,0,0,0,-1.7403,-1.7451,-1.7452,-1.7467,-1.7547,-1.7605,-1.7615,-1.7635,-1.7621,-1.7646,-1.7672,-1.7674,-1.7787,-1.7764,-1.7779,-1.7809,-1.7923,-1.7926,-1.793,-1.7938,-1.7945,-1.795,0,0,0,0,0,0,-1.7407,-1.7458,-1.7459,-1.7524,-1.756,-1.7606,-1.7638,-1.7641,-1.7682,-1.768,-1.7703,-1.7714,-1.7774,-1.7797,-1.7771,-1.7872,-1.7854,-1.7861,-1.7855,-1.7861,-1.7866,-1.786,-1.7764,0,0,0,0,0,-1.7415,-1.7457,-1.75,-1.7553,-1.757,-1.7601,-1.7627,-1.7638,-1.7677,-1.7692,-1.7723,-1.7761,-1.7805,-1.7834,-1.7877,-1.7943,-1.7954,-1.7971,-1.7976,-1.7979,-1.7986,-1.8023,-1.8031,-1.7945,-1.7945,-1.7945,0,0,-1.7433,-1.7466,-1.7492,-1.7554,-1.7583,-1.7627,-1.7614,-1.7661,-1.7693,-1.77,-1.7759,-1.7782,-1.7826,-1.7889,-1.7918,-1.7911,-1.8012,-1.7984,-1.7987,-1.7992,-1.8027,-1.8035,-1.8043,-1.7948,-1.7947,-1.7947,0,0,-1.7489,-1.7517,-1.7565,-1.7593,-1.7637,-1.7657,-1.7668,-1.7713,-1.7729,-1.7788,-1.7793,-1.7832,-1.7908,-1.7939,-1.7965,-1.8029,-1.8032,-1.8042,-1.8069,-1.8104,-1.8111,-1.8117,-1.8141,-1.8149,-1.8048,-1.8048,-1.8048,0,-1.7506,-1.7571,-1.7589,-1.7635,-1.7663,-1.7668,-1.7717,-1.7744,-1.78,-1.7819,-1.7809,-1.7904,-1.7933,-1.8004,-1.8019,-1.804,-1.8054,-1.8038,-1.8108,-1.8115,-1.8121,-1.8144,-1.8152,-1.8049,-1.8049,-1.8049,-1.8049,0,-1.759,-1.7635,-1.7668,-1.7721,-1.7752,-1.7799,-1.7824,-1.7853,-1.7861,-1.7881,-1.7941,-1.7977,-1.8027,-1.8044,-1.8053,-1.8116,-1.811,-1.8103,-1.8086,-1.8129,-1.8152,-1.816,-1.8051,-1.805,-1.805,-1.805,0,0,-1.7654,-1.7713,-1.7725,-1.7749,-1.7797,-1.7832,-1.7879,-1.7927,-1.7952,-1.799,-1.803,-1.8093,-1.8087,-1.8116,-1.8128,-1.8159,-1.8208,-1.8149,-1.8151,-1.816,-1.8281,-1.8286,-1.8296,-1.821,-1.8211,-1.8213,-1.8277,0,-1.7715,-1.7799,-1.7815,-1.7887,-1.7929,-1.7934,-1.7975,-1.8009,-1.8029,-1.8068,-1.8089,-1.8134,-1.8123,-1.814,-1.8171,-1.8196,-1.8233,-1.8191,-1.8249,-1.8251,-1.824,-1.8307,-1.8314,-1.8373,-1.8286,-1.8287,-1.8288,0,-1.7799,-1.7837,-1.7914,-1.7955,-1.7973,-1.801,-1.8055,-1.8091,-1.8129,-1.8142,-1.8173,-1.8181,-1.823,-1.8208,-1.8277,-1.8248,-1.8272,-1.8287,-1.829,-1.8298,-1.8274,-1.8318,-1.8392,-1.8402,-1.8302,-1.8301,-1.83,0,-1.7838,-1.7909,-1.7964,-1.7984,-1.8033,-1.8059,-1.8081,-1.8117,-1.8145,-1.8183,-1.8202,-1.8246,-1.8271,-1.8305,-1.8325,-1.8307,-1.8392,-1.8372,-1.8405,-1.8404,-1.8424,-1.8423,-1.8505,-1.8437,-1.8437,-1.8437,-1.8436,0,-1.7907,-1.7954,-1.7983,-1.8017,-1.8069,-1.8087,-1.8138,-1.816,-1.8192,-1.823,-1.8237,-1.8273,-1.8296,-1.8336,-1.8351,-1.8406,-1.8417,-1.8429,-1.8433,-1.8429,-1.8428,-1.8447,-1.8444,-1.8439,-1.8438,-1.8438,-1.8438,0,-1.7961,-1.7982,-1.8043,-1.8083,-1.8094,-1.8131,-1.8167,-1.82,-1.8218,-1.8267,-1.8279,-1.8309,-1.8356,-1.8378,-1.8437,-1.8447,-1.8509,-1.851,-1.8496,-1.8498,-1.853,-1.8528,-1.8628,-1.8643,-1.8564,-1.8564,-1.8565,0,-1.8004,-1.804,-1.8084,-1.811,-1.8132,-1.8173,-1.8201,-1.8219,-1.8247,-1.8292,-1.832,-1.8367,-1.8405,-1.8479,-1.8507,-1.8551,-1.8554,-1.8586,-1.8561,-1.8556,-1.8556,-1.8554,-1.8558,-1.8591,-1.8592,-1.8593,-1.8593,0,-1.8079,-1.8087,-1.8126,-1.8169,-1.8201,-1.8236,-1.827,-1.829,-1.8314,-1.8345,-1.8392,-1.8422,-1.848,-1.8527,-1.8573,-1.8595,-1.8599,-1.86,-1.8611,-1.8609,-1.86,-1.8606,-1.8511,-1.8599,-1.8598,-1.8598,-1.8597,-1.8597,-1.813,-1.8162,-1.8198,-1.8241,-1.8268,-1.8299,-1.8332,-1.8354,-1.8393,-1.8442,-1.845,-1.85,-1.8536,-1.8598,-1.8622,-1.8662,-1.8655,-1.8669,-1.8673,-1.8677,-1.8679,-1.8591,-1.867,-1.867,-1.867,-1.867,-1.867,0,-1.8206,-1.8228,-1.8268,-1.8314,-1.8348,-1.8346,-1.8383,-1.8412,-1.8456,-1.8489,-1.8526,-1.8579,-1.8624,-1.8654,-1.8699,-1.8725,-1.8728,-1.8737,-1.8736,-1.8741,-1.8682,-1.867,-1.8734,-1.8734,-1.8734,-1.8734,-1.8734,-1.8734,-1.825,-1.8304,-1.8316,-1.8383,-1.8406,-1.8454,-1.8476,-1.8505,-1.8531,-1.859,-1.8627,-1.8645,-1.8677,-1.8725,-1.8765,-1.8773,-1.879,-1.8799,-1.8807,-1.8752,-1.8745,-1.8739,-1.8727,-1.8802,-1.8802,-1.8863,-1.8863,-1.8864]},{"header":{"parameterUnit":"m.s-1","parameterCategory":1,"la1":30.2991,"la2":30.254,"lo1":-89.0895,"lo2":-89.0444,"dy":0.0017,"dx":0.0017,"nx":28,"ny":28,"refTime":"2023-09-22T21:00:00:Z","depth":0,"parameterNumber":3,"parameterNumberName":"V-component_of_WINDS"},"data":[0,0,0,0,0,0,0,0,0,0,0,0,0,0,0,0,0,0,0,0,0,0,0,0,0,0,0,0,0,0,0,0,0,0,0,0,0,0,0,0,0,0,0,0,0,0,0,0,0,0,0,0,0,0,0,0,0,0,-1.0669,-1.0669,0,-1.059,-1.0589,-1.0589,-1.0507,-1.0506,-1.0504,-1.0503,-1.0421,-1.042,-1.0419,0,0,0,0,0,0,0,0,0,0,0,0,0,-1.0749,-1.0748,-1.067,-1.0669,-1.0668,-1.059,-1.0589,-1.0588,-1.0507,-1.0505,-1.0504,-1.0503,-1.0422,-1.042,-1.0419,0,0,0,0,0,0,0,0,0,0,0,0,0,-1.0697,-1.0748,-1.067,-1.0618,-1.0612,-1.0591,-1.0589,-1.0588,-1.0507,-1.0505,-1.0504,-1.0502,-1.0422,-1.042,-1.0419,-1.0442,0,0,-1.0413,-1.0413,0,0,0,0,0,0,0,0,-1.07,-1.0694,-1.0626,-1.0621,-1.0615,-1.0557,-1.0587,-1.0539,-1.0508,-1.0547,-1.0503,-1.0501,-1.0468,-1.0462,-1.0451,-1.0438,-1.0434,-1.0413,-1.0412,-1.0412,-1.0411,0,0,0,0,0,0,0,-1.0704,-1.0697,-1.0638,-1.0625,-1.0619,-1.0598,-1.0589,-1.0578,-1.0518,-1.0543,-1.0537,-1.0529,-1.0464,-1.0453,-1.0448,-1.0433,-1.0413,-1.0412,-1.0411,-1.041,-1.0436,-1.0437,0,0,0,0,0,0,-1.0715,-1.0701,-1.0641,-1.0636,-1.0654,-1.0598,-1.0588,-1.0577,-1.0518,-1.0507,-1.0531,-1.0526,-1.0456,-1.045,-1.0445,-1.0468,-1.0412,-1.041,-1.0409,-1.0434,-1.0436,-1.0438,0,0,0,0,0,0,-1.0718,-1.0711,-1.0644,-1.0667,-1.0656,-1.0598,-1.0587,-1.0576,-1.0565,-1.0508,-1.0497,-1.053,-1.0455,-1.0448,-1.0443,-1.0464,-1.0409,-1.0408,-1.0432,-1.0435,-1.0437,-1.0515,0,0,0,0,0,0,-1.072,-1.0712,-1.072,-1.0667,-1.0656,-1.0644,-1.0589,-1.0576,-1.0562,-1.0555,-1.0504,-1.0494,-1.0453,-1.0446,-1.0442,-1.0461,-1.0406,-1.043,-1.0433,-1.0436,-1.0511,-1.052,-1.0528,0,0,0,0,0,-1.0723,-1.0745,-1.0721,-1.0714,-1.0665,-1.0645,-1.0638,-1.0591,-1.0564,-1.0572,-1.0536,-1.0496,-1.0463,-1.0447,-1.0441,-1.046,-1.0428,-1.0432,-1.0436,-1.0506,-1.0518,-1.0528,0,0,0,0,0,0,-1.0802,-1.0737,-1.071,-1.0715,-1.0687,-1.0631,-1.064,-1.0605,-1.0582,-1.0576,-1.0518,-1.0507,-1.051,-1.0484,-1.0467,-1.0479,-1.044,-1.0443,-1.0496,-1.0506,-1.0515,-1.0521,-1.0405,0,0,0,0,0,-1.082,-1.081,-1.0754,-1.0764,-1.0751,-1.0698,-1.0688,-1.0654,-1.0621,-1.0608,-1.0571,-1.0541,-1.0524,-1.0514,-1.0495,-1.0507,-1.0494,-1.0517,-1.0526,-1.0533,-1.0536,-1.0541,-1.055,-1.0451,-1.0451,-1.045,0,0,-1.0856,-1.082,-1.0817,-1.0779,-1.0752,-1.0743,-1.0688,-1.068,-1.0673,-1.0607,-1.0601,-1.0573,-1.0535,-1.054,-1.054,-1.0518,-1.0562,-1.0538,-1.0545,-1.0544,-1.0546,-1.0556,-1.0564,-1.0453,-1.0453,-1.0452,0,0,-1.0919,-1.089,-1.0896,-1.0871,-1.0832,-1.0797,-1.0798,-1.0749,-1.0728,-1.0721,-1.0672,-1.0662,-1.0633,-1.0608,-1.0592,-1.0647,-1.0609,-1.0642,-1.0689,-1.0694,-1.0702,-1.0708,-1.0728,-1.0736,-1.0645,-1.0646,-1.0646,0,-1.0969,-1.0954,-1.0903,-1.0899,-1.0883,-1.0824,-1.0829,-1.0807,-1.0764,-1.0755,-1.0732,-1.0695,-1.0666,-1.0663,-1.0677,-1.0666,-1.0665,-1.0647,-1.0705,-1.0711,-1.0716,-1.0734,-1.0742,-1.065,-1.0649,-1.0649,-1.0648,0,-1.1018,-1.1008,-1.1017,-1.0977,-1.0963,-1.0963,-1.0913,-1.0905,-1.0872,-1.084,-1.0834,-1.0796,-1.0769,-1.0766,-1.0734,-1.0759,-1.0747,-1.0716,-1.0675,-1.0731,-1.0747,-1.0753,-1.0656,-1.0654,-1.0653,-1.0652,0,0,-1.1126,-1.106,-1.1064,-1.1045,-1.0998,-1.099,-1.0988,-1.0961,-1.0955,-1.0928,-1.0924,-1.0902,-1.0873,-1.0855,-1.0819,-1.0824,-1.087,-1.0791,-1.0789,-1.0807,-1.0896,-1.092,-1.0929,-1.0845,-1.0846,-1.0847,-1.0899,0,-1.118,-1.1173,-1.1128,-1.1134,-1.1124,-1.1069,-1.1067,-1.1038,-1.1008,-1.0995,-1.0961,-1.0946,-1.0909,-1.0897,-1.0899,-1.0864,-1.0887,-1.0859,-1.0841,-1.0841,-1.0852,-1.0937,-1.0962,-1.1013,-1.0905,-1.0906,-1.0906,0,-1.1242,-1.1219,-1.1225,-1.1178,-1.1173,-1.1172,-1.1145,-1.1133,-1.1099,-1.1077,-1.1057,-1.1018,-1.1013,-1.0975,-1.0967,-1.095,-1.0939,-1.0921,-1.0922,-1.0918,-1.0877,-1.0935,-1.1028,-1.1036,-1.0916,-1.0915,-1.0914,0,-1.1321,-1.1291,-1.1291,-1.1277,-1.1223,-1.1224,-1.1201,-1.1166,-1.1153,-1.1129,-1.112,-1.1096,-1.1083,-1.1065,-1.102,-1.0997,-1.1018,-1.0976,-1.0999,-1.1,-1.1005,-1.1005,-1.1097,-1.0999,-1.0999,-1.0999,-1.0999,0,-1.1386,-1.1391,-1.1325,-1.1325,-1.133,-1.1278,-1.1284,-1.1256,-1.1225,-1.1219,-1.1169,-1.1163,-1.1105,-1.1093,-1.1057,-1.1056,-1.1051,-1.1032,-1.1023,-1.1037,-1.1039,-1.1029,-1.1024,-1.1001,-1.1001,-1.1,-1.1,0,-1.1474,-1.143,-1.1426,-1.1376,-1.1363,-1.1369,-1.1326,-1.1323,-1.1291,-1.1283,-1.1278,-1.1226,-1.121,-1.1163,-1.1135,-1.1111,-1.112,-1.1102,-1.1132,-1.1125,-1.1151,-1.1149,-1.1239,-1.1248,-1.1145,-1.1146,-1.1147,0,-1.1518,-1.1521,-1.1472,-1.1464,-1.1444,-1.1432,-1.1419,-1.1368,-1.1357,-1.1319,-1.1322,-1.1301,-1.1282,-1.1258,-1.1218,-1.1196,-1.1177,-1.1211,-1.1174,-1.1188,-1.1178,-1.1178,-1.1178,-1.1219,-1.122,-1.1221,-1.1222,0,-1.1601,-1.158,-1.1563,-1.154,-1.1526,-1.1505,-1.1481,-1.1477,-1.1421,-1.141,-1.1393,-1.1379,-1.135,-1.133,-1.1302,-1.1278,-1.1241,-1.1234,-1.1238,-1.1252,-1.1269,-1.126,-1.1153,-1.1232,-1.1231,-1.123,-1.123,-1.1229,-1.1668,-1.1668,-1.1634,-1.1618,-1.1595,-1.1574,-1.1569,-1.1536,-1.1521,-1.1494,-1.1465,-1.1452,-1.1418,-1.1376,-1.1356,-1.1344,-1.1324,-1.133,-1.1331,-1.1334,-1.134,-1.1271,-1.1339,-1.1338,-1.1338,-1.1338,-1.1337,0,-1.1748,-1.1724,-1.171,-1.1678,-1.1665,-1.1632,-1.1604,-1.1595,-1.1584,-1.1556,-1.1539,-1.152,-1.15,-1.1459,-1.1437,-1.1435,-1.1417,-1.1431,-1.143,-1.1426,-1.1359,-1.1358,-1.1446,-1.1446,-1.1446,-1.1446,-1.1446,-1.1446,-1.1789,-1.1788,-1.1763,-1.175,-1.1725,-1.1711,-1.1698,-1.1679,-1.1656,-1.1637,-1.1621,-1.1595,-1.1562,-1.1536,-1.1517,-1.1506,-1.15,-1.1519,-1.1502,-1.144,-1.143,-1.142,-1.1419,-1.1518,-1.1518,-1.1569,-1.1569,-1.157]}]]